Find ViaSat-1

NORAD ID: 37843 Int'l Des: 2011-059 Owner: VIA Country: US Constellation: viasat operational
HEOCIRCULARGSOGEO

Current View

Loading 3D Globe...

About ViaSat-1

ViaSat-1 (NORAD 37843) is a viasat constellation satellite launched Oct 19, 2011 by VIA of US. It operates in HEO, CIRCULAR, GSO, GEO orbit with a mass of 6740.00 kg.

Upcoming Passes

Passes for default location (London). Set your location on the main map for personalized predictions.

Altitude History

Loading altitude history...

Two-Line Element Set

1 37843U 11059A 26264.25834302 -.00000028 00000-0 00000-0 0 9999
2 37843 0.0143 218.7636 0002412 306.6554 172.6388 1.00272779 48288
Epoch: Sep 21, 2026 • Age: 6 hours

Current Status

Altitude 35787.6 km
Apogee / Perigee N/A
Velocity 3.07 km/s
Sub-Earth Point -0.02°S, 115.13°W
Launch Date Oct 19, 2011
Age 14.9 years
Type other

Technical Details

Classification Payload
Mass 6740.00 kg
Dry Mass 3650.00 kg
Total Mass 6740.00 kg
Length 8.70 m
Diameter 3.10 m
Span 26.10 m
Shape Box + 2 Pan
Manufacturer LOR
Bus Type SSL-1300
Phase Status In Orbit
Owner/State VIA/US

Most Searched